Location: Cueva de Ratón
(10.1013°N, 67.6606°W)
Time: 02:41:06
(UTC+00:00)

YAOGAN 1 - Pass Details

Date: 02 December 2023
Orbit: 613 x 615 km, 97.8° (Epoch: 20 February)

Event Time Altitude Azimuth Distance (km) Brightness Sun altitude
Rises 23:28:50 0° 163° (SSE) 2,868 6.0 -19.6°
Reaches altitude 10° 23:31:01 10° 161° (SSE) 1,964 5.1 -20.1°
Maximum altitude 23:35:16 67° 78° (ENE) 662 2.4 -21.1°
Enters shadow 23:36:50 37° 7° (N) 958 3.3 -21.4°
